TimeMDT,TemperatureF,Dew PointF,Humidity,Sea Level PressureIn,VisibilityMPH,Wind Direction,Wind SpeedMPH,Gust SpeedMPH,PrecipitationIn,Events,Conditions,WindDirDegrees,DateUTC
12:56 AM,12.0,8.1,84,30.42,4.0,NNW,8.1,-,0.00,Snow,Light Snow,330,2013-03-25 06:56:00
1:56 AM,12.0,9.0,88,30.43,4.0,NW,9.2,-,0.00,Snow,Light Snow,310,2013-03-25 07:56:00
2:14 AM,12.2,8.6,85,30.28,4.0,NW,10.4,-,0.00,Snow,Light Snow,310,2013-03-25 08:14:00
2:56 AM,12.9,9.0,84,30.42,6.0,NNW,10.4,-,0.00,Snow,Light Snow,330,2013-03-25 08:56:00
3:56 AM,12.0,9.0,88,30.40,4.0,NW,10.4,-,0.00,Snow,Light Snow,320,2013-03-25 09:56:00
4:56 AM,12.0,9.0,88,30.42,6.0,WNW,8.1,-,0.00,Snow,Light Snow,290,2013-03-25 10:56:00
5:56 AM,12.0,8.1,84,30.42,10.0,WNW,8.1,-,0.00,,Overcast,290,2013-03-25 11:56:00
6:30 AM,12.2,8.6,85,30.28,10.0,WNW,8.1,-,N/A,,Overcast,290,2013-03-25 12:30:00
6:56 AM,10.9,8.1,88,30.43,10.0,WNW,8.1,-,0.00,,Overcast,300,2013-03-25 12:56:00
7:56 AM,10.9,8.1,88,30.45,6.0,WNW,9.2,-,0.00,Snow,Light Snow,300,2013-03-25 13:56:00
8:56 AM,12.9,9.0,84,30.45,3.0,WNW,6.9,-,0.00,Snow,Light Snow,290,2013-03-25 14:56:00
9:18 AM,12.2,8.6,85,30.30,1.2,WNW,6.9,-,0.00,Snow,Light Snow,290,2013-03-25 15:18:00
9:22 AM,12.2,8.6,85,30.30,5.0,WNW,8.1,-,0.00,,Scattered Clouds,300,2013-03-25 15:22:00
9:56 AM,12.9,8.1,81,30.45,10.0,Variable,3.5,-,0.00,,Clear,0,2013-03-25 15:56:00
10:56 AM,17.1,10.0,74,30.44,10.0,West,4.6,-,N/A,,Clear,270,2013-03-25 16:56:00
11:56 AM,19.9,12.0,71,30.43,10.0,WNW,4.6,-,N/A,,Clear,300,2013-03-25 17:56:00
12:56 PM,21.9,10.9,63,30.41,10.0,Variable,3.5,-,N/A,,Clear,0,2013-03-25 18:56:00
1:56 PM,24.1,15.1,69,30.39,10.0,Calm,Calm,-,N/A,,Clear,0,2013-03-25 19:56:00
2:56 PM,25.0,14.0,63,30.38,10.0,Variable,3.5,-,N/A,,Clear,0,2013-03-25 20:56:00
3:56 PM,27.0,16.0,63,30.36,10.0,West,3.5,-,N/A,,Clear,270,2013-03-25 21:56:00
4:56 PM,28.0,14.0,56,30.35,10.0,Calm,Calm,-,N/A,,Clear,0,2013-03-25 22:56:00
5:56 PM,28.0,15.1,58,30.34,10.0,Calm,Calm,-,N/A,,Clear,0,2013-03-25 23:56:00
6:56 PM,25.0,17.1,72,30.33,10.0,East,5.8,-,N/A,,Clear,100,2013-03-26 00:56:00
7:56 PM,21.0,16.0,81,30.33,10.0,East,5.8,-,N/A,,Clear,100,2013-03-26 01:56:00
8:56 PM,19.0,14.0,81,30.33,10.0,ESE,6.9,-,N/A,,Clear,110,2013-03-26 02:56:00
9:56 PM,19.0,14.0,81,30.33,10.0,SE,9.2,-,N/A,,Clear,130,2013-03-26 03:56:00
10:56 PM,17.1,12.9,84,30.32,10.0,SSE,8.1,-,N/A,,Clear,160,2013-03-26 04:56:00
11:56 PM,15.1,10.9,84,30.30,10.0,SSE,6.9,-,N/A,,Clear,150,2013-03-26 05:56:00